Year,Month,Day,Hour,Minute,Value (Times are PST for temperature in C)
2022,05,08,00,00,5.30
2022,05,08,00,01,5.30
2022,05,08,00,02,5.30
2022,05,08,00,03,5.30
2022,05,08,00,04,5.30
2022,05,08,00,05,5.30
2022,05,08,00,06,5.30
2022,05,08,00,07,5.30
2022,05,08,00,08,5.40
2022,05,08,00,09,5.30
2022,05,08,00,10,5.40
2022,05,08,00,11,5.40
2022,05,08,00,12,5.40
2022,05,08,00,13,5.40
2022,05,08,00,14,5.40
2022,05,08,00,15,5.40
2022,05,08,00,16,5.40
2022,05,08,00,17,5.40
2022,05,08,00,18,5.40
2022,05,08,00,19,5.40
2022,05,08,00,20,5.40
2022,05,08,00,21,5.40
2022,05,08,00,22,5.50
2022,05,08,00,23,5.40
2022,05,08,00,24,5.40
2022,05,08,00,25,5.40
2022,05,08,00,26,5.40
2022,05,08,00,27,5.40
2022,05,08,00,28,5.40
2022,05,08,00,29,5.40
2022,05,08,00,30,5.40
2022,05,08,00,31,5.40
2022,05,08,00,32,5.40
2022,05,08,00,33,5.40
2022,05,08,00,34,5.40
2022,05,08,00,35,5.40
2022,05,08,00,36,5.30
2022,05,08,00,37,5.30
2022,05,08,00,38,5.30
2022,05,08,00,39,5.30
2022,05,08,00,40,5.30
2022,05,08,00,41,5.30
2022,05,08,00,42,5.30
2022,05,08,00,43,5.30
2022,05,08,00,44,5.30
2022,05,08,00,45,5.30
2022,05,08,00,46,5.30
2022,05,08,00,47,5.30
2022,05,08,00,48,5.20
2022,05,08,00,49,5.20
2022,05,08,00,50,5.20
2022,05,08,00,51,5.20
2022,05,08,00,52,5.20
2022,05,08,00,53,5.20
2022,05,08,00,54,5.20
2022,05,08,00,55,5.20
2022,05,08,00,56,5.10
2022,05,08,00,57,5.10
2022,05,08,00,58,5.10
2022,05,08,00,59,5.10
2022,05,08,01,00,5.10
2022,05,08,01,01,5.10
2022,05,08,01,02,5.10
2022,05,08,01,03,5.10
2022,05,08,01,04,5.10
2022,05,08,01,05,5.10
2022,05,08,01,06,5.10
2022,05,08,01,07,5.10
2022,05,08,01,08,5.10
2022,05,08,01,09,5.10
2022,05,08,01,10,5.10
2022,05,08,01,11,5.10
2022,05,08,01,12,5.10
2022,05,08,01,13,5.00
2022,05,08,01,14,5.00
2022,05,08,01,15,5.00
2022,05,08,01,16,5.00
2022,05,08,01,17,5.00
2022,05,08,01,18,5.00
2022,05,08,01,19,5.00
2022,05,08,01,20,5.00
2022,05,08,01,21,5.00
2022,05,08,01,22,5.00
2022,05,08,01,23,5.00
2022,05,08,01,24,5.00
2022,05,08,01,25,5.00
2022,05,08,01,26,5.00
2022,05,08,01,27,5.00
2022,05,08,01,28,5.00
2022,05,08,01,29,5.00
2022,05,08,01,30,5.00
2022,05,08,01,31,5.00
2022,05,08,01,32,5.00
2022,05,08,01,33,5.10
2022,05,08,01,34,5.10
2022,05,08,01,35,5.10
2022,05,08,01,36,5.10
2022,05,08,01,37,5.10
2022,05,08,01,38,5.10
2022,05,08,01,39,5.10
2022,05,08,01,40,5.10
2022,05,08,01,41,5.10
2022,05,08,01,42,5.20
2022,05,08,01,43,5.20
2022,05,08,01,44,5.20
2022,05,08,01,45,5.20
2022,05,08,01,46,5.20
2022,05,08,01,47,5.20
2022,05,08,01,48,5.20
2022,05,08,01,49,5.20
2022,05,08,01,50,5.20
2022,05,08,01,51,5.20
2022,05,08,01,52,5.20
2022,05,08,01,53,5.30
2022,05,08,01,54,5.30
2022,05,08,01,55,5.30
2022,05,08,01,56,5.30
2022,05,08,01,57,5.30
2022,05,08,01,58,5.20
2022,05,08,01,59,5.30
2022,05,08,02,00,5.30
2022,05,08,02,01,5.30
2022,05,08,02,02,5.30
2022,05,08,02,03,5.20
2022,05,08,02,04,5.20
2022,05,08,02,05,5.20
2022,05,08,02,06,5.30
2022,05,08,02,07,5.30
2022,05,08,02,08,5.30
2022,05,08,02,09,5.30
2022,05,08,02,10,5.30
2022,05,08,02,11,5.30
2022,05,08,02,12,5.30
2022,05,08,02,13,5.30
2022,05,08,02,14,5.30
2022,05,08,02,15,5.30
2022,05,08,02,16,5.30
2022,05,08,02,17,5.30
2022,05,08,02,18,5.30
2022,05,08,02,19,5.40
2022,05,08,02,20,5.40
2022,05,08,02,21,5.40
2022,05,08,02,22,5.40
2022,05,08,02,23,5.40
2022,05,08,02,24,5.40
2022,05,08,02,25,5.40
2022,05,08,02,26,5.40
2022,05,08,02,27,5.40
2022,05,08,02,28,5.50
2022,05,08,02,29,5.50
2022,05,08,02,30,5.50
2022,05,08,02,31,5.50
2022,05,08,02,32,5.50
2022,05,08,02,33,5.50
2022,05,08,02,34,5.50
2022,05,08,02,35,5.60
2022,05,08,02,36,5.60
2022,05,08,02,37,5.60
2022,05,08,02,38,5.60
2022,05,08,02,39,5.60
2022,05,08,02,40,5.60
2022,05,08,02,41,5.60
2022,05,08,02,42,5.60
2022,05,08,02,43,5.60
2022,05,08,02,44,5.60
2022,05,08,02,45,5.70
2022,05,08,02,46,5.70
2022,05,08,02,47,5.70
2022,05,08,02,48,5.70
2022,05,08,02,49,5.70
2022,05,08,02,50,5.70
2022,05,08,02,51,5.70
2022,05,08,02,52,5.70
2022,05,08,02,53,5.70
2022,05,08,02,54,5.70
2022,05,08,02,55,5.70
2022,05,08,02,56,5.70
2022,05,08,02,57,5.70
2022,05,08,02,58,5.70
2022,05,08,02,59,5.70
2022,05,08,03,00,5.70
2022,05,08,03,01,5.70
2022,05,08,03,02,5.60
2022,05,08,03,03,5.60
2022,05,08,03,04,5.60
2022,05,08,03,05,5.60
2022,05,08,03,06,5.60
2022,05,08,03,07,5.60
2022,05,08,03,08,5.60
2022,05,08,03,09,5.60
2022,05,08,03,10,5.60
2022,05,08,03,11,5.50
2022,05,08,03,12,5.50
2022,05,08,03,13,5.50
2022,05,08,03,14,5.50
2022,05,08,03,15,5.50
2022,05,08,03,16,5.50
2022,05,08,03,17,5.50
2022,05,08,03,18,5.50
2022,05,08,03,19,5.50
2022,05,08,03,20,5.40
2022,05,08,03,21,5.40
2022,05,08,03,22,5.40
2022,05,08,03,23,5.40
2022,05,08,03,24,5.40
2022,05,08,03,25,5.40
2022,05,08,03,26,5.40
2022,05,08,03,27,5.40
2022,05,08,03,28,5.40
2022,05,08,03,29,5.40
2022,05,08,03,30,5.40
2022,05,08,03,31,5.40
2022,05,08,03,32,5.40
2022,05,08,03,33,5.40
2022,05,08,03,34,5.40
2022,05,08,03,35,5.30
2022,05,08,03,36,5.30
2022,05,08,03,37,5.30
2022,05,08,03,38,5.30
2022,05,08,03,39,5.30
2022,05,08,03,40,5.30
2022,05,08,03,41,5.20
2022,05,08,03,42,5.20
2022,05,08,03,43,5.20
2022,05,08,03,44,5.20
2022,05,08,03,45,5.20
2022,05,08,03,46,5.20
2022,05,08,03,47,5.10
2022,05,08,03,48,5.10
2022,05,08,03,49,5.10
2022,05,08,03,50,5.10
2022,05,08,03,51,5.10
2022,05,08,03,52,5.00
2022,05,08,03,53,5.00
2022,05,08,03,54,5.00
2022,05,08,03,55,5.00
2022,05,08,03,56,5.00
2022,05,08,03,57,4.90
2022,05,08,03,58,4.90
2022,05,08,03,59,4.90
2022,05,08,04,00,4.90
2022,05,08,04,01,4.90
2022,05,08,04,02,4.90
2022,05,08,04,03,4.90
2022,05,08,04,04,4.90
2022,05,08,04,05,4.90
2022,05,08,04,06,4.90
2022,05,08,04,07,4.90
2022,05,08,04,08,4.80
2022,05,08,04,09,4.80
2022,05,08,04,10,4.80
2022,05,08,04,11,4.80
2022,05,08,04,12,4.80
2022,05,08,04,13,4.80
2022,05,08,04,14,4.80
2022,05,08,04,15,4.80
2022,05,08,04,16,4.80
2022,05,08,04,17,4.80
2022,05,08,04,18,4.70
2022,05,08,04,19,4.70
2022,05,08,04,20,4.70
2022,05,08,04,21,4.70
2022,05,08,04,22,4.70
2022,05,08,04,23,4.70
2022,05,08,04,24,4.70
2022,05,08,04,25,4.60
2022,05,08,04,26,4.60
2022,05,08,04,27,4.60
2022,05,08,04,28,4.60
2022,05,08,04,29,4.60
2022,05,08,04,30,4.60
2022,05,08,04,31,4.60
2022,05,08,04,32,4.60
2022,05,08,04,33,4.60
2022,05,08,04,34,4.60
2022,05,08,04,35,4.60
2022,05,08,04,36,4.60
2022,05,08,04,37,4.60
2022,05,08,04,38,4.50
2022,05,08,04,39,4.50
2022,05,08,04,40,4.50
2022,05,08,04,41,4.50
2022,05,08,04,42,4.50
2022,05,08,04,43,4.50
2022,05,08,04,44,4.50
2022,05,08,04,45,4.50
2022,05,08,04,46,4.50
2022,05,08,04,47,4.50
2022,05,08,04,48,4.50
2022,05,08,04,49,4.50
2022,05,08,04,50,4.50
2022,05,08,04,51,4.50
2022,05,08,04,52,4.50
2022,05,08,04,53,4.50
2022,05,08,04,54,4.50
2022,05,08,04,55,4.50
2022,05,08,04,56,4.50
2022,05,08,04,57,4.50
2022,05,08,04,58,4.50
2022,05,08,04,59,4.50
2022,05,08,05,00,4.50
2022,05,08,05,01,4.60
2022,05,08,05,02,4.60
2022,05,08,05,03,4.60
2022,05,08,05,04,4.60
2022,05,08,05,05,4.60
2022,05,08,05,06,4.60
2022,05,08,05,07,4.60
2022,05,08,05,08,4.60
2022,05,08,05,09,4.60
2022,05,08,05,10,4.60
2022,05,08,05,11,4.70
2022,05,08,05,12,4.60
2022,05,08,05,13,4.70
2022,05,08,05,14,4.60
2022,05,08,05,15,4.60
2022,05,08,05,16,4.70
2022,05,08,05,17,4.70
2022,05,08,05,18,4.70
2022,05,08,05,19,4.70
2022,05,08,05,20,4.70
2022,05,08,05,21,4.70
2022,05,08,05,22,4.70
2022,05,08,05,23,4.70
2022,05,08,05,24,4.70
2022,05,08,05,25,4.70
2022,05,08,05,26,4.70
2022,05,08,05,27,4.70
2022,05,08,05,28,4.70
2022,05,08,05,29,4.70
2022,05,08,05,30,4.70
2022,05,08,05,31,4.70
2022,05,08,05,32,4.70
2022,05,08,05,33,4.70
2022,05,08,05,34,4.70
2022,05,08,05,35,4.70
2022,05,08,05,36,4.70
2022,05,08,05,37,4.70
2022,05,08,05,38,4.70
2022,05,08,05,39,4.70
2022,05,08,05,40,4.70
2022,05,08,05,41,4.70
2022,05,08,05,42,4.80
2022,05,08,05,43,4.80
2022,05,08,05,44,4.80
2022,05,08,05,45,4.80
2022,05,08,05,46,4.80
2022,05,08,05,47,4.80
2022,05,08,05,48,4.80
2022,05,08,05,49,4.80
2022,05,08,05,50,4.80
2022,05,08,05,51,4.80
2022,05,08,05,52,4.80
2022,05,08,05,53,4.80
2022,05,08,05,54,4.80
2022,05,08,05,55,4.90
2022,05,08,05,56,4.90
2022,05,08,05,57,4.90
2022,05,08,05,58,4.90
2022,05,08,05,59,4.90
2022,05,08,06,00,4.90
2022,05,08,06,01,4.90
2022,05,08,06,02,4.90
2022,05,08,06,03,4.90
2022,05,08,06,04,4.90
2022,05,08,06,05,4.90
2022,05,08,06,06,4.90
2022,05,08,06,07,5.00
2022,05,08,06,08,5.00
2022,05,08,06,09,4.90
2022,05,08,06,10,5.00
2022,05,08,06,11,5.00
2022,05,08,06,12,5.00
2022,05,08,06,13,4.90
2022,05,08,06,14,5.00
2022,05,08,06,15,4.90
2022,05,08,06,16,4.90
2022,05,08,06,17,4.90
2022,05,08,06,18,4.90
2022,05,08,06,19,4.90
2022,05,08,06,20,4.90
2022,05,08,06,21,5.00
2022,05,08,06,22,5.00
2022,05,08,06,23,5.00
2022,05,08,06,24,5.00
2022,05,08,06,25,5.00
2022,05,08,06,26,5.00
2022,05,08,06,27,5.00
2022,05,08,06,28,5.00
2022,05,08,06,29,5.00
2022,05,08,06,30,5.00
2022,05,08,06,31,5.00
2022,05,08,06,32,5.00
2022,05,08,06,33,5.10
2022,05,08,06,34,5.10
2022,05,08,06,35,5.10
2022,05,08,06,36,5.10
2022,05,08,06,37,5.10
2022,05,08,06,38,5.10
2022,05,08,06,39,5.10
2022,05,08,06,40,5.10
2022,05,08,06,41,5.10
2022,05,08,06,42,5.10
2022,05,08,06,43,5.10
2022,05,08,06,44,5.10
2022,05,08,06,45,5.10
2022,05,08,06,46,5.10
2022,05,08,06,47,5.10
2022,05,08,06,48,5.10
2022,05,08,06,49,5.10
2022,05,08,06,50,5.10
2022,05,08,06,51,5.10
2022,05,08,06,52,5.10
2022,05,08,06,53,5.10
2022,05,08,06,54,5.20
2022,05,08,06,55,5.20
2022,05,08,06,56,5.20
2022,05,08,06,57,5.20
2022,05,08,06,58,5.20
2022,05,08,06,59,5.20
2022,05,08,07,00,5.20
2022,05,08,07,01,5.20
2022,05,08,07,02,5.20
2022,05,08,07,03,5.30
2022,05,08,07,04,5.30
2022,05,08,07,05,5.30
2022,05,08,07,06,5.30
2022,05,08,07,07,5.30
2022,05,08,07,08,5.30
2022,05,08,07,09,5.40
2022,05,08,07,10,5.40
2022,05,08,07,11,5.40
2022,05,08,07,12,5.40
2022,05,08,07,13,5.40
2022,05,08,07,14,5.50
2022,05,08,07,15,5.40
2022,05,08,07,16,5.50
2022,05,08,07,17,5.60
2022,05,08,07,18,5.60
2022,05,08,07,19,5.60
2022,05,08,07,20,5.70
2022,05,08,07,21,5.70
2022,05,08,07,22,5.70
2022,05,08,07,23,5.70
2022,05,08,07,24,5.80
2022,05,08,07,25,5.80
2022,05,08,07,26,5.80
2022,05,08,07,27,5.80
2022,05,08,07,28,5.80
2022,05,08,07,29,5.80
2022,05,08,07,30,5.80
2022,05,08,07,31,5.80
2022,05,08,07,32,5.90
2022,05,08,07,33,5.90
2022,05,08,07,34,5.90
2022,05,08,07,35,5.90
2022,05,08,07,36,5.90
2022,05,08,07,37,5.90
2022,05,08,07,38,5.90
2022,05,08,07,39,5.90
2022,05,08,07,40,5.90
2022,05,08,07,41,5.90
2022,05,08,07,42,5.90
2022,05,08,07,43,5.90
2022,05,08,07,44,5.90
2022,05,08,07,45,5.90
2022,05,08,07,46,5.90
2022,05,08,07,47,5.90
2022,05,08,07,48,5.90
2022,05,08,07,49,5.90
2022,05,08,07,50,6.00
2022,05,08,07,51,6.00
2022,05,08,07,52,6.10
2022,05,08,07,53,6.10
2022,05,08,07,54,6.20
2022,05,08,07,55,6.20
2022,05,08,07,56,6.30
2022,05,08,07,57,6.30
2022,05,08,07,58,6.40
2022,05,08,07,59,6.40
2022,05,08,08,00,6.40
2022,05,08,08,01,6.40
2022,05,08,08,02,6.40
2022,05,08,08,03,6.40
2022,05,08,08,04,6.50
2022,05,08,08,05,6.50
2022,05,08,08,06,6.50
2022,05,08,08,07,6.50
2022,05,08,08,08,6.50
2022,05,08,08,09,6.50
2022,05,08,08,10,6.50
2022,05,08,08,11,6.60
2022,05,08,08,12,6.60
2022,05,08,08,13,6.60
2022,05,08,08,14,6.60
2022,05,08,08,15,6.60
2022,05,08,08,16,6.70
2022,05,08,08,17,6.60
2022,05,08,08,18,6.50
2022,05,08,08,19,6.40
2022,05,08,08,20,6.40
2022,05,08,08,21,6.40
2022,05,08,08,22,6.40
2022,05,08,08,23,6.40
2022,05,08,08,24,6.50
2022,05,08,08,25,6.60
2022,05,08,08,26,6.70
2022,05,08,08,27,6.80
2022,05,08,08,28,6.90
2022,05,08,08,29,7.00
2022,05,08,08,30,7.10
2022,05,08,08,31,7.10
2022,05,08,08,32,7.10
2022,05,08,08,33,7.20
2022,05,08,08,34,7.20
2022,05,08,08,35,7.20
2022,05,08,08,36,7.20
2022,05,08,08,37,7.30
2022,05,08,08,38,7.30
2022,05,08,08,39,7.40
2022,05,08,08,40,7.40
2022,05,08,08,41,7.40
2022,05,08,08,42,7.50
2022,05,08,08,43,7.60
2022,05,08,08,44,7.70
2022,05,08,08,45,7.80
2022,05,08,08,46,7.80
2022,05,08,08,47,7.80
2022,05,08,08,48,7.80
2022,05,08,08,49,7.80
2022,05,08,08,50,7.80
2022,05,08,08,51,7.80
2022,05,08,08,52,7.80
2022,05,08,08,53,7.90
2022,05,08,08,54,7.90
2022,05,08,08,55,7.80
2022,05,08,08,56,7.80
2022,05,08,08,57,7.80
2022,05,08,08,58,7.80
2022,05,08,08,59,7.80
2022,05,08,09,00,7.80
2022,05,08,09,01,7.80
2022,05,08,09,02,7.90
2022,05,08,09,03,8.00
2022,05,08,09,04,8.00
2022,05,08,09,05,8.00
2022,05,08,09,06,8.00
2022,05,08,09,07,8.00
2022,05,08,09,08,8.00
2022,05,08,09,09,8.00
2022,05,08,09,10,8.00
2022,05,08,09,11,8.00
2022,05,08,09,12,8.10
2022,05,08,09,13,8.10
2022,05,08,09,14,8.10
2022,05,08,09,15,8.10
2022,05,08,09,16,8.10
2022,05,08,09,17,8.20
2022,05,08,09,18,8.20
2022,05,08,09,19,8.20
2022,05,08,09,20,8.30
2022,05,08,09,21,8.30
2022,05,08,09,22,8.30
2022,05,08,09,23,8.30
2022,05,08,09,24,8.30
2022,05,08,09,25,8.20
2022,05,08,09,26,8.20
2022,05,08,09,27,8.20
2022,05,08,09,28,8.30
2022,05,08,09,29,8.40
2022,05,08,09,30,8.40
2022,05,08,09,31,8.40
2022,05,08,09,32,8.30
2022,05,08,09,33,8.30
2022,05,08,09,34,8.20
2022,05,08,09,35,8.20
2022,05,08,09,36,8.20
2022,05,08,09,37,8.20
2022,05,08,09,38,8.20
2022,05,08,09,39,8.20
2022,05,08,09,40,8.30
2022,05,08,09,41,8.40
2022,05,08,09,42,8.50
2022,05,08,09,43,8.60
2022,05,08,09,44,8.70
2022,05,08,09,45,8.80
2022,05,08,09,46,8.90
2022,05,08,09,47,9.00
2022,05,08,09,48,9.00
2022,05,08,09,49,9.00
2022,05,08,09,50,9.00
2022,05,08,09,51,9.00
2022,05,08,09,52,9.00
2022,05,08,09,53,8.90
2022,05,08,09,54,8.90
2022,05,08,09,55,8.90
2022,05,08,09,56,8.90
2022,05,08,09,57,8.90
2022,05,08,09,58,9.00
2022,05,08,09,59,9.10
2022,05,08,10,00,9.10
2022,05,08,10,01,9.10
2022,05,08,10,02,9.10
2022,05,08,10,03,9.20
2022,05,08,10,04,9.20
2022,05,08,10,05,9.30
2022,05,08,10,06,9.30
2022,05,08,10,07,9.30
2022,05,08,10,08,9.20
2022,05,08,10,09,9.10
2022,05,08,10,10,9.00
2022,05,08,10,11,8.90
2022,05,08,10,12,8.90
2022,05,08,10,13,9.00
2022,05,08,10,14,9.00
2022,05,08,10,15,9.00
2022,05,08,10,16,9.00
2022,05,08,10,17,9.00
2022,05,08,10,18,8.90
2022,05,08,10,19,8.90
2022,05,08,10,20,8.80
2022,05,08,10,21,8.80
2022,05,08,10,22,8.70
2022,05,08,10,23,8.80
2022,05,08,10,24,8.80
2022,05,08,10,25,8.80
2022,05,08,10,26,8.80
2022,05,08,10,27,8.90
2022,05,08,10,28,9.00
2022,05,08,10,29,9.10
2022,05,08,10,30,9.20
2022,05,08,10,31,9.20
2022,05,08,10,32,9.30
2022,05,08,10,33,9.30
2022,05,08,10,34,9.40
2022,05,08,10,35,9.40
2022,05,08,10,36,9.50
2022,05,08,10,37,9.60
2022,05,08,10,38,9.50
2022,05,08,10,39,9.40
2022,05,08,10,40,9.40
2022,05,08,10,41,9.30
2022,05,08,10,42,9.30
2022,05,08,10,43,9.30
2022,05,08,10,44,9.30
2022,05,08,10,45,9.30
2022,05,08,10,46,9.30
2022,05,08,10,47,9.30
2022,05,08,10,48,9.30
2022,05,08,10,49,9.30
2022,05,08,10,50,9.30
2022,05,08,10,51,9.30
2022,05,08,10,52,9.40
2022,05,08,10,53,9.40
2022,05,08,10,54,9.50
2022,05,08,10,55,9.60
2022,05,08,10,56,9.70
2022,05,08,10,57,9.80
2022,05,08,10,58,9.80
2022,05,08,10,59,9.80
2022,05,08,11,00,9.90
2022,05,08,11,01,9.90
2022,05,08,11,02,9.90
2022,05,08,11,03,9.90
2022,05,08,11,04,9.80
2022,05,08,11,05,9.80
2022,05,08,11,06,9.80
2022,05,08,11,07,9.90
2022,05,08,11,08,9.90
2022,05,08,11,09,9.90
2022,05,08,11,10,9.90
2022,05,08,11,11,9.90
2022,05,08,11,12,9.90
2022,05,08,11,13,9.90
2022,05,08,11,14,9.80
2022,05,08,11,15,9.80
2022,05,08,11,16,9.80
2022,05,08,11,17,9.80
2022,05,08,11,18,9.80
2022,05,08,11,19,9.80
2022,05,08,11,20,9.80
2022,05,08,11,21,9.80
2022,05,08,11,22,9.70
2022,05,08,11,23,9.60
2022,05,08,11,24,9.60
2022,05,08,11,25,9.60
2022,05,08,11,26,9.60
2022,05,08,11,27,9.50
2022,05,08,11,28,9.50
2022,05,08,11,29,9.50
2022,05,08,11,30,9.40
2022,05,08,11,31,9.40
2022,05,08,11,32,9.40
2022,05,08,11,33,9.40
2022,05,08,11,34,9.30
2022,05,08,11,35,9.30
2022,05,08,11,36,9.30
2022,05,08,11,37,9.30
2022,05,08,11,38,9.40
2022,05,08,11,39,9.50
2022,05,08,11,40,9.70
2022,05,08,11,41,9.80
2022,05,08,11,42,9.90
2022,05,08,11,43,10.00
2022,05,08,11,44,10.00
2022,05,08,11,45,10.10
2022,05,08,11,46,10.20
2022,05,08,11,47,10.20
2022,05,08,11,48,10.20
2022,05,08,11,49,10.20
2022,05,08,11,50,10.30
2022,05,08,11,51,10.50
2022,05,08,11,52,10.60
2022,05,08,11,53,10.80
2022,05,08,11,54,10.90
2022,05,08,11,55,10.90
2022,05,08,11,56,10.80
2022,05,08,11,57,10.70
2022,05,08,11,58,10.70
2022,05,08,11,59,10.60
2022,05,08,12,00,10.50
2022,05,08,12,01,10.40
2022,05,08,12,02,10.40
2022,05,08,12,03,10.40
2022,05,08,12,04,10.40
2022,05,08,12,05,10.50
2022,05,08,12,06,10.60
2022,05,08,12,07,10.60
2022,05,08,12,08,10.60
2022,05,08,12,09,10.50
2022,05,08,12,10,10.40
2022,05,08,12,11,10.30
2022,05,08,12,12,10.20
2022,05,08,12,13,10.20
2022,05,08,12,14,10.20
2022,05,08,12,15,10.10
2022,05,08,12,16,10.20
2022,05,08,12,17,10.10
2022,05,08,12,18,10.00
2022,05,08,12,19,9.90
2022,05,08,12,20,9.80
2022,05,08,12,21,9.70
2022,05,08,12,22,9.70
2022,05,08,12,23,9.60
2022,05,08,12,24,9.70
2022,05,08,12,25,9.70
2022,05,08,12,26,9.70
2022,05,08,12,27,9.70
2022,05,08,12,28,9.70
2022,05,08,12,29,9.70
2022,05,08,12,30,9.60
2022,05,08,12,31,9.60
2022,05,08,12,32,9.60
2022,05,08,12,33,9.50
2022,05,08,12,34,9.50
2022,05,08,12,35,9.40
2022,05,08,12,36,9.40
2022,05,08,12,37,9.40
2022,05,08,12,38,9.40
2022,05,08,12,39,9.30
2022,05,08,12,40,9.30
2022,05,08,12,41,9.40
2022,05,08,12,42,9.40
2022,05,08,12,43,9.40
2022,05,08,12,44,9.40
2022,05,08,12,45,9.40
2022,05,08,12,46,9.40
2022,05,08,12,47,9.50
2022,05,08,12,48,9.50
2022,05,08,12,49,9.60
2022,05,08,12,50,9.70
2022,05,08,12,51,9.80
2022,05,08,12,52,9.80
2022,05,08,12,53,9.90
2022,05,08,12,54,9.90
2022,05,08,12,55,9.90
2022,05,08,12,56,9.90
2022,05,08,12,57,9.90
2022,05,08,12,58,9.90
2022,05,08,12,59,9.90
2022,05,08,13,00,9.80
2022,05,08,13,01,9.80
2022,05,08,13,02,9.80
2022,05,08,13,03,9.80
2022,05,08,13,04,9.80
2022,05,08,13,05,9.90
2022,05,08,13,06,10.00
2022,05,08,13,07,10.00
2022,05,08,13,08,10.10
2022,05,08,13,09,10.20
2022,05,08,13,10,10.30
2022,05,08,13,11,10.50
2022,05,08,13,12,10.60
2022,05,08,13,13,10.70
2022,05,08,13,14,10.80
2022,05,08,13,15,10.80
2022,05,08,13,16,10.80
2022,05,08,13,17,10.80
2022,05,08,13,18,10.90
2022,05,08,13,19,10.90
2022,05,08,13,20,10.90
2022,05,08,13,21,10.90
2022,05,08,13,22,10.90
2022,05,08,13,23,10.90
2022,05,08,13,24,10.80
2022,05,08,13,25,10.80
2022,05,08,13,26,10.90
2022,05,08,13,27,10.90
2022,05,08,13,28,10.90
2022,05,08,13,29,10.80
2022,05,08,13,30,10.80
2022,05,08,13,31,10.80
2022,05,08,13,32,10.70
2022,05,08,13,33,10.60
2022,05,08,13,34,10.60
2022,05,08,13,35,10.60
2022,05,08,13,36,10.60
2022,05,08,13,37,10.70
2022,05,08,13,38,10.90
2022,05,08,13,39,11.00
2022,05,08,13,40,11.10
2022,05,08,13,41,11.00
2022,05,08,13,42,11.00
2022,05,08,13,43,10.90
2022,05,08,13,44,10.80
2022,05,08,13,45,10.70
2022,05,08,13,46,10.70
2022,05,08,13,47,10.70
2022,05,08,13,48,10.80
2022,05,08,13,49,10.80
2022,05,08,13,50,10.80
2022,05,08,13,51,10.80
2022,05,08,13,52,10.80
2022,05,08,13,53,10.70
2022,05,08,13,54,10.70
2022,05,08,13,55,10.60
2022,05,08,13,56,10.50
2022,05,08,13,57,10.40
2022,05,08,13,58,10.40
2022,05,08,13,59,10.50
2022,05,08,14,00,10.60
2022,05,08,14,01,10.70
2022,05,08,14,02,10.80
2022,05,08,14,03,11.00
2022,05,08,14,04,11.10
2022,05,08,14,05,11.10
2022,05,08,14,06,11.10
2022,05,08,14,07,11.10
2022,05,08,14,08,11.00
2022,05,08,14,09,11.00
2022,05,08,14,10,11.00
2022,05,08,14,11,11.00
2022,05,08,14,12,11.00
2022,05,08,14,13,11.00
2022,05,08,14,14,11.10
2022,05,08,14,15,11.10
2022,05,08,14,16,11.00
2022,05,08,14,17,11.00
2022,05,08,14,18,11.00
2022,05,08,14,19,11.00
2022,05,08,14,20,11.10
2022,05,08,14,21,11.20
2022,05,08,14,22,11.30
2022,05,08,14,23,11.40
2022,05,08,14,24,11.40
2022,05,08,14,25,11.40
2022,05,08,14,26,11.30
2022,05,08,14,27,11.30
2022,05,08,14,28,11.30
2022,05,08,14,29,11.30
2022,05,08,14,30,11.30
2022,05,08,14,31,11.30
2022,05,08,14,32,11.30
2022,05,08,14,33,11.30
2022,05,08,14,34,11.30
2022,05,08,14,35,11.40
2022,05,08,14,36,11.60
2022,05,08,14,37,11.80
2022,05,08,14,38,12.00
2022,05,08,14,39,12.20
2022,05,08,14,40,12.40
2022,05,08,14,41,12.60
2022,05,08,14,42,12.70
2022,05,08,14,43,12.70
2022,05,08,14,44,12.60
2022,05,08,14,45,12.60
2022,05,08,14,46,12.60
2022,05,08,14,47,12.60
2022,05,08,14,48,12.60
2022,05,08,14,49,12.50
2022,05,08,14,50,12.50
2022,05,08,14,51,12.40
2022,05,08,14,52,12.30
2022,05,08,14,53,12.30
2022,05,08,14,54,12.40
2022,05,08,14,55,12.40
2022,05,08,14,56,12.50
2022,05,08,14,57,12.50
2022,05,08,14,58,12.50
2022,05,08,14,59,12.50
2022,05,08,15,00,12.40
2022,05,08,15,01,12.30
2022,05,08,15,02,12.30
2022,05,08,15,03,12.20
2022,05,08,15,04,12.20
2022,05,08,15,05,12.20
2022,05,08,15,06,12.30
2022,05,08,15,07,12.40
2022,05,08,15,08,12.50
2022,05,08,15,09,12.50
2022,05,08,15,10,12.70
2022,05,08,15,11,12.70
2022,05,08,15,12,12.70
2022,05,08,15,13,12.70
2022,05,08,15,14,12.80
2022,05,08,15,15,12.80
2022,05,08,15,16,12.80
2022,05,08,15,17,12.80
2022,05,08,15,18,12.70
2022,05,08,15,19,12.70
2022,05,08,15,20,12.70
2022,05,08,15,21,12.60
2022,05,08,15,22,12.40
2022,05,08,15,23,12.30
2022,05,08,15,24,12.00
2022,05,08,15,25,11.80
2022,05,08,15,26,11.60
2022,05,08,15,27,11.40
2022,05,08,15,28,11.20
2022,05,08,15,29,11.10
2022,05,08,15,30,11.10
2022,05,08,15,31,11.10
2022,05,08,15,32,11.10
2022,05,08,15,33,11.10
2022,05,08,15,34,11.10
2022,05,08,15,35,11.10
2022,05,08,15,36,11.10
2022,05,08,15,37,11.10
2022,05,08,15,38,11.20
2022,05,08,15,39,11.30
2022,05,08,15,40,11.30
2022,05,08,15,41,11.30
2022,05,08,15,42,11.30
2022,05,08,15,43,11.20
2022,05,08,15,44,11.20
2022,05,08,15,45,11.20
2022,05,08,15,46,11.30
2022,05,08,15,47,11.30
2022,05,08,15,48,11.20
2022,05,08,15,49,11.20
2022,05,08,15,50,11.10
2022,05,08,15,51,11.10
2022,05,08,15,52,11.10
2022,05,08,15,53,11.10
2022,05,08,15,54,11.10
2022,05,08,15,55,11.10
2022,05,08,15,56,11.10
2022,05,08,15,57,11.10
2022,05,08,15,58,11.10
2022,05,08,15,59,11.20
2022,05,08,16,00,11.30
2022,05,08,16,01,11.30
2022,05,08,16,02,11.30
2022,05,08,16,03,11.40
2022,05,08,16,04,11.50
2022,05,08,16,05,11.70
2022,05,08,16,06,11.70
2022,05,08,16,07,11.70
2022,05,08,16,08,11.70
2022,05,08,16,09,11.70
2022,05,08,16,10,11.60
2022,05,08,16,11,11.50
2022,05,08,16,12,11.40
2022,05,08,16,13,11.40
2022,05,08,16,14,11.50
2022,05,08,16,15,11.50
2022,05,08,16,16,11.50
2022,05,08,16,17,11.60
2022,05,08,16,18,11.60
2022,05,08,16,19,11.50
2022,05,08,16,20,11.50
2022,05,08,16,21,11.60
2022,05,08,16,22,11.50
2022,05,08,16,23,11.50
2022,05,08,16,24,11.40
2022,05,08,16,25,11.40
2022,05,08,16,26,11.40
2022,05,08,16,27,11.50
2022,05,08,16,28,11.50
2022,05,08,16,29,11.60
2022,05,08,16,30,11.60
2022,05,08,16,31,11.70
2022,05,08,16,32,11.70
2022,05,08,16,33,11.80
2022,05,08,16,34,11.80
2022,05,08,16,35,11.90
2022,05,08,16,36,11.90
2022,05,08,16,37,11.80
2022,05,08,16,38,11.80
2022,05,08,16,39,11.80
2022,05,08,16,40,11.80
2022,05,08,16,41,11.80
2022,05,08,16,42,11.90
2022,05,08,16,43,11.90
2022,05,08,16,44,11.90
2022,05,08,16,45,12.00
2022,05,08,16,46,12.00
2022,05,08,16,47,12.00
2022,05,08,16,48,12.00
2022,05,08,16,49,12.00
2022,05,08,16,50,12.00
2022,05,08,16,51,12.00
2022,05,08,16,52,12.00
2022,05,08,16,53,11.90
2022,05,08,16,54,12.00
2022,05,08,16,55,12.00
2022,05,08,16,56,12.10
2022,05,08,16,57,12.10
2022,05,08,16,58,12.10
2022,05,08,16,59,12.20
2022,05,08,17,00,12.20
2022,05,08,17,01,12.20
2022,05,08,17,02,12.10
2022,05,08,17,03,12.00
2022,05,08,17,04,12.00
2022,05,08,17,05,12.00
2022,05,08,17,06,11.90
2022,05,08,17,07,12.00
2022,05,08,17,08,12.00
2022,05,08,17,09,12.10
2022,05,08,17,10,12.00
2022,05,08,17,11,11.90
2022,05,08,17,12,11.90
2022,05,08,17,13,11.90
2022,05,08,17,14,11.90
2022,05,08,17,15,11.90
2022,05,08,17,16,11.90
2022,05,08,17,17,11.90
2022,05,08,17,18,11.90
2022,05,08,17,19,11.90
2022,05,08,17,20,11.90
2022,05,08,17,21,11.90
2022,05,08,17,22,11.90
2022,05,08,17,23,11.80
2022,05,08,17,24,11.80
2022,05,08,17,25,11.70
2022,05,08,17,26,11.70
2022,05,08,17,27,11.80
2022,05,08,17,28,11.90
2022,05,08,17,29,12.00
2022,05,08,17,30,12.10
2022,05,08,17,31,12.20
2022,05,08,17,32,12.20
2022,05,08,17,33,12.20
2022,05,08,17,34,12.30
2022,05,08,17,35,12.30
2022,05,08,17,36,12.30
2022,05,08,17,37,12.20
2022,05,08,17,38,12.10
2022,05,08,17,39,12.00
2022,05,08,17,40,12.00
2022,05,08,17,41,11.90
2022,05,08,17,42,11.90
2022,05,08,17,43,11.90
2022,05,08,17,44,12.00
2022,05,08,17,45,12.00
2022,05,08,17,46,12.00
2022,05,08,17,47,12.00
2022,05,08,17,48,12.10
2022,05,08,17,49,12.10
2022,05,08,17,50,12.10
2022,05,08,17,51,12.20
2022,05,08,17,52,12.20